,,Stat6,,Stat2,,Stat8,,Stat9,,Stat10,,Wind1,,Wind1,
time,status,PA1M_AVG,status,PR1M_SUM,status,RH1M_AVG,status,SR1M_AVG,status,TA1M_AVG,status,W1dAve1m,status,W1sAve1m,
2008-04-22, 00:00:00,VALID,914.638,VALID,0,VALID,100,VALID,0.0339617,VALID,20.0497,VALID,20,VALID,0,
2008-04-22, 00:01:00,VALID,914.632,VALID,0,VALID,100,VALID,0.0679233,VALID,20.0303,VALID,352,VALID,0,
2008-04-22, 00:02:00,VALID,914.625,VALID,0,VALID,100,VALID,0.0509425,VALID,20.0046,VALID,346,VALID,0,
2008-04-22, 00:03:00,VALID,914.629,VALID,0.2,VALID,100,VALID,0,VALID,19.9789,VALID,346,VALID,0,
2008-04-22, 00:04:00,VALID,914.622,VALID,0,VALID,100,VALID,0.0849042,VALID,19.9751,VALID,8,VALID,0,
2008-04-22, 00:05:00,VALID,914.605,VALID,0,VALID,100,VALID,0.0339617,VALID,19.9948,VALID,21,VALID,0,
2008-04-22, 00:06:00,VALID,914.591,VALID,0,VALID,100,VALID,0.0509425,VALID,19.9848,VALID,28,VALID,0.739583,
2008-04-22, 00:07:00,VALID,914.596,VALID,0.2,VALID,100,VALID,0.0509425,VALID,19.9918,VALID,8,VALID,1.05287,
2008-04-22, 00:08:00,VALID,914.595,VALID,0,VALID,100,VALID,0.0509425,VALID,19.9754,VALID,1,VALID,0.87407,
2008-04-22, 00:09:00,VALID,914.592,VALID,0,VALID,100,VALID,0.0849042,VALID,19.9462,VALID,353,VALID,1.02717,
2008-04-22, 00:10:00,VALID,914.602,VALID,0,VALID,100,VALID,0.0679233,VALID,19.9137,VALID,351,VALID,0.655449,
2008-04-22, 00:11:00,VALID,914.625,VALID,0.2,VALID,100,VALID,0.0679233,VALID,19.9135,VALID,1,VALID,0.230729,
2008-04-22, 00:12:00,VALID,914.625,VALID,0,VALID,100,VALID,0.0849042,VALID,19.9297,VALID,15,VALID,0,
2008-04-22, 00:13:00,VALID,914.619,VALID,0,VALID,100,VALID,0.0169808,VALID,19.9232,VALID,5,VALID,0.102921,
2008-04-22, 00:14:00,VALID,914.627,VALID,0,VALID,100,VALID,0.0509425,VALID,19.8905,VALID,9,VALID,0.597301,
2008-04-22, 00:15:00,VALID,914.636,VALID,0.2,VALID,100,VALID,0.0509425,VALID,19.8875,VALID,3,VALID,0.320126,
2008-04-22, 00:16:00,VALID,914.644,VALID,0,VALID,100,VALID,0.101885,VALID,19.8972,VALID,3,VALID,0.238653,
2008-04-22, 00:17:00,VALID,914.641,VALID,0,VALID,100,VALID,0.0339617,VALID,19.9102,VALID,327,VALID,0.142721,
2008-04-22, 00:18:00,VALID,914.63,VALID,0.2,VALID,100,VALID,0.0509425,VALID,19.9297,VALID,314,VALID,0,
2008-04-22, 00:19:00,VALID,914.641,VALID,0,VALID,100,VALID,0.0339617,VALID,19.9589,VALID,353,VALID,0.205305,
2008-04-22, 00:20:00,VALID,914.633,VALID,0,VALID,100,VALID,0.0169808,VALID,19.9794,VALID,10,VALID,0,
2008-04-22, 00:21:00,VALID,914.63,VALID,0,VALID,100,VALID,-0.0169808,VALID,19.9701,VALID,26,VALID,0,
2008-04-22, 00:22:00,VALID,914.641,VALID,0,VALID,100,VALID,-0.0509425,VALID,19.9998,VALID,23,VALID,0,
2008-04-22, 00:23:00,VALID,914.656,VALID,0.2,VALID,100,VALID,-0.0509425,VALID,19.9864,VALID,23,VALID,0,
2008-04-22, 00:24:00,VALID,914.635,VALID,0,VALID,100,VALID,-0.0339617,VALID,20.0063,VALID,23,VALID,0,
2008-04-22, 00:25:00,VALID,914.618,VALID,0,VALID,100,VALID,-0.0509425,VALID,20.0253,VALID,23,VALID,0,
2008-04-22, 00:26:00,VALID,914.582,VALID,0,VALID,100,VALID,-0.0169808,VALID,20.0188,VALID,34,VALID,0.149653,
2008-04-22, 00:27:00,VALID,914.585,VALID,0.2,VALID,100,VALID,-0.0679233,VALID,19.9799,VALID,61,VALID,0.684524,
2008-04-22, 00:28:00,VALID,914.585,VALID,0,VALID,100,VALID,-0.0339617,VALID,19.9601,VALID,86,VALID,0.178597,
2008-04-22, 00:29:00,VALID,914.583,VALID,0,VALID,100,VALID,0,VALID,19.9374,VALID,27,VALID,0.477865,
2008-04-22, 00:30:00,VALID,914.561,VALID,0,VALID,100,VALID,-0.0339617,VALID,19.9442,VALID,30,VALID,0.48738,
2008-04-22, 00:31:00,VALID,914.589,VALID,0,VALID,100,VALID,-0.0509425,VALID,19.9604,VALID,8,VALID,0.518403,
2008-04-22, 00:32:00,VALID,914.588,VALID,0,VALID,100,VALID,-0.0509425,VALID,19.9477,VALID,4,VALID,0.0275298,
2008-04-22, 00:33:00,VALID,914.584,VALID,0.2,VALID,100,VALID,-0.0509425,VALID,19.9347,VALID,312,VALID,0,
2008-04-22, 00:34:00,VALID,914.59,VALID,0,VALID,100,VALID,-0.0679233,VALID,19.9247,VALID,312,VALID,0,
2008-04-22, 00:35:00,VALID,914.577,VALID,0,VALID,100,VALID,0,VALID,19.9107,VALID,312,VALID,0,
2008-04-22, 00:36:00,VALID,914.591,VALID,0,VALID,100,VALID,0.0339617,VALID,19.91,VALID,312,VALID,0,
2008-04-22, 00:37:00,VALID,914.567,VALID,0,VALID,100,VALID,0.0169808,VALID,19.9332,VALID,338,VALID,0,
2008-04-22, 00:38:00,VALID,914.535,VALID,0.2,VALID,100,VALID,0.0339617,VALID,19.9624,VALID,25,VALID,0.266026,
2008-04-22, 00:39:00,VALID,914.532,VALID,0,VALID,100,VALID,0,VALID,19.9526,VALID,39,VALID,0.516146,
2008-04-22, 00:40:00,VALID,914.516,VALID,0,VALID,100,VALID,0.0169808,VALID,19.9334,VALID,37,VALID,1.69215,
2008-04-22, 00:41:00,VALID,914.505,VALID,0,VALID,100,VALID,0.0169808,VALID,19.8972,VALID,31,VALID,1.75962,
2008-04-22, 00:42:00,VALID,914.484,VALID,0,VALID,100,VALID,0.0339617,VALID,19.8877,VALID,47,VALID,1.71782,
2008-04-22, 00:43:00,VALID,914.482,VALID,0,VALID,100,VALID,0.0339617,VALID,19.8785,VALID,28,VALID,2.02687,
2008-04-22, 00:44:00,VALID,914.496,VALID,0.2,VALID,100,VALID,0.0169808,VALID,19.8713,VALID,26,VALID,1.09985,
2008-04-22, 00:45:00,VALID,914.486,VALID,0,VALID,100,VALID,0.0169808,VALID,19.865,VALID,28,VALID,1.06715,
2008-04-22, 00:46:00,VALID,914.466,VALID,0,VALID,100,VALID,0.0339617,VALID,19.865,VALID,23,VALID,1.24647,
2008-04-22, 00:47:00,VALID,914.46,VALID,0,VALID,100,VALID,0.0339617,VALID,19.8521,VALID,18,VALID,1.19591,
2008-04-22, 00:48:00,VALID,914.443,VALID,0.2,VALID,100,VALID,0.0169808,VALID,19.855,VALID,12,VALID,1.10387,
2008-04-22, 00:49:00,VALID,914.434,VALID,0,VALID,100,VALID,0.0509425,VALID,19.8518,VALID,10,VALID,0.76582,
2008-04-22, 00:50:00,VALID,914.416,VALID,0,VALID,100,VALID,-0.0169808,VALID,19.8526,VALID,27,VALID,0.00520833,
2008-04-22, 00:51:00,VALID,914.434,VALID,0,VALID,100,VALID,-0.0849042,VALID,19.8695,VALID,26,VALID,0.0729802,
2008-04-22, 00:52:00,VALID,914.425,VALID,0,VALID,100,VALID,-0.0849042,VALID,19.8468,VALID,28,VALID,0.0543155,
2008-04-22, 00:53:00,VALID,914.436,VALID,0.2,VALID,100,VALID,-0.0339617,VALID,19.8533,VALID,18,VALID,0,
2008-04-22, 00:54:00,VALID,914.417,VALID,0,VALID,100,VALID,-0.0509425,VALID,19.8566,VALID,9,VALID,0.00093006,
2008-04-22, 00:55:00,VALID,914.385,VALID,0,VALID,100,VALID,-0.101885,VALID,19.8595,VALID,9,VALID,0,
2008-04-22, 00:56:00,VALID,914.374,VALID,0,VALID,100,VALID,-0.0849042,VALID,19.8955,VALID,9,VALID,0.48383,
2008-04-22, 00:57:00,VALID,914.365,VALID,0,VALID,100,VALID,-0.0849042,VALID,19.9052,VALID,8,VALID,0.208265,
2008-04-22, 00:58:00,VALID,914.362,VALID,0.2,VALID,100,VALID,-0.0679233,VALID,19.892,VALID,7,VALID,0,
2008-04-22, 00:59:00,VALID,914.365,VALID,0,VALID,100,VALID,-0.0339617,VALID,19.8888,VALID,7,VALID,0,
2008-04-22, 01:00:00,VALID,914.353,VALID,0,VALID,100,VALID,-0.101885,VALID,19.9085,VALID,28,VALID,0,
2008-04-22, 01:01:00,VALID,914.344,VALID,0,VALID,100,VALID,-0.0679233,VALID,19.9282,VALID,24,VALID,0,
2008-04-22, 01:02:00,VALID,914.291,VALID,0,VALID,100,VALID,-0.118866,VALID,19.9314,VALID,28,VALID,0.477539,
2008-04-22, 01:03:00,VALID,914.278,VALID,0,VALID,100,VALID,-0.0679233,VALID,19.9117,VALID,24,VALID,0.954545,
2008-04-22, 01:04:00,VALID,914.297,VALID,0,VALID,100,VALID,-0.0849042,VALID,19.9087,VALID,24,VALID,0.325707,
2008-04-22, 01:05:00,VALID,914.314,VALID,0,VALID,100,VALID,-0.0169808,VALID,19.8912,VALID,26,VALID,0,
2008-04-22, 01:06:00,VALID,914.307,VALID,0,VALID,100,VALID,0.0679233,VALID,19.8778,VALID,12,VALID,0,
2008-04-22, 01:07:00,VALID,914.301,VALID,0,VALID,100,VALID,0.0679233,VALID,19.874,VALID,12,VALID,0,
2008-04-22, 01:08:00,VALID,914.297,VALID,0,VALID,100,VALID,0.0339617,VALID,19.8615,VALID,12,VALID,0,
2008-04-22, 01:09:00,VALID,914.318,VALID,0,VALID,100,VALID,0.0509425,VALID,19.868,VALID,12,VALID,0,
2008-04-22, 01:10:00,VALID,914.288,VALID,0.2,VALID,100,VALID,0.0509425,VALID,19.8875,VALID,12,VALID,0,
2008-04-22, 01:11:00,VALID,914.268,VALID,0,VALID,100,VALID,0.0169808,VALID,19.8972,VALID,12,VALID,0,
2008-04-22, 01:12:00,VALID,914.244,VALID,0,VALID,100,VALID,0,VALID,19.9037,VALID,12,VALID,0,
2008-04-22, 01:13:00,VALID,914.238,VALID,0,VALID,100,VALID,0.0339617,VALID,19.897,VALID,12,VALID,0,
2008-04-22, 01:14:00,VALID,914.235,VALID,0,VALID,100,VALID,0.0679233,VALID,19.9162,VALID,12,VALID,0,
2008-04-22, 01:15:00,VALID,914.232,VALID,0,VALID,100,VALID,0.0679233,VALID,19.9524,VALID,12,VALID,0,
2008-04-22, 01:16:00,VALID,914.209,VALID,0,VALID,100,VALID,0.0679233,VALID,19.9621,VALID,12,VALID,0,
2008-04-22, 01:17:00,VALID,914.197,VALID,0,VALID,100,VALID,0.0509425,VALID,19.9589,VALID,12,VALID,0,
2008-04-22, 01:18:00,VALID,914.192,VALID,0,VALID,100,VALID,0.0169808,VALID,19.9456,VALID,12,VALID,0,
2008-04-22, 01:19:00,VALID,914.17,VALID,0,VALID,100,VALID,0.0339617,VALID,19.9559,VALID,12,VALID,0,
2008-04-22, 01:20:00,VALID,914.172,VALID,0,VALID,100,VALID,0,VALID,19.9626,VALID,12,VALID,0,
2008-04-22, 01:21:00,VALID,914.152,VALID,0,VALID,100,VALID,0.0339617,VALID,19.9689,VALID,12,VALID,0,
2008-04-22, 01:22:00,VALID,914.16,VALID,0,VALID,100,VALID,0.0169808,VALID,19.9491,VALID,12,VALID,0,
2008-04-22, 01:23:00,VALID,914.159,VALID,0,VALID,100,VALID,0.0169808,VALID,19.9332,VALID,11,VALID,0,
2008-04-22, 01:24:00,VALID,914.157,VALID,0,VALID,100,VALID,0.0169808,VALID,19.9167,VALID,6,VALID,0,
2008-04-22, 01:25:00,VALID,914.165,VALID,0,VALID,100,VALID,0,VALID,19.9042,VALID,6,VALID,0,
2008-04-22, 01:26:00,VALID,914.157,VALID,0.2,VALID,100,VALID,0.0169808,VALID,19.894,VALID,355,VALID,0,
2008-04-22, 01:27:00,VALID,914.148,VALID,0,VALID,100,VALID,0,VALID,19.8745,VALID,320,VALID,0,
2008-04-22, 01:28:00,VALID,914.136,VALID,0,VALID,100,VALID,0.0509425,VALID,19.8685,VALID,320,VALID,0,
2008-04-22, 01:29:00,VALID,914.109,VALID,0,VALID,100,VALID,0,VALID,19.8521,VALID,319,VALID,0,
2008-04-22, 01:30:00,VALID,914.095,VALID,0,VALID,100,VALID,0,VALID,19.8423,VALID,319,VALID,0,
2008-04-22, 01:31:00,VALID,914.043,VALID,0,VALID,100,VALID,0,VALID,19.8356,VALID,319,VALID,0,
2008-04-22, 01:32:00,VALID,914.03,VALID,0,VALID,100,VALID,0.0169808,VALID,19.8618,VALID,319,VALID,0,
2008-04-22, 01:33:00,VALID,914.011,VALID,0,VALID,100,VALID,0.0339617,VALID,19.8843,VALID,319,VALID,0,
2008-04-22, 01:34:00,VALID,913.974,VALID,0,VALID,100,VALID,-0.0169808,VALID,19.8848,VALID,319,VALID,0,
2008-04-22, 01:35:00,VALID,913.951,VALID,0,VALID,100,VALID,-0.0339617,VALID,19.8561,VALID,319,VALID,0,
2008-04-22, 01:36:00,VALID,913.935,VALID,0,VALID,100,VALID,-0.0679233,VALID,19.8501,VALID,319,VALID,0,
2008-04-22, 01:37:00,VALID,913.91,VALID,0,VALID,100,VALID,-0.101885,VALID,19.8403,VALID,319,VALID,0,
2008-04-22, 01:38:00,VALID,913.888,VALID,0.2,VALID,100,VALID,-0.0849042,VALID,19.8373,VALID,319,VALID,0,
2008-04-22, 01:39:00,VALID,913.878,VALID,0,VALID,100,VALID,-0.0849042,VALID,19.8211,VALID,323,VALID,0,
2008-04-22, 01:40:00,VALID,913.867,VALID,0,VALID,100,VALID,-0.101885,VALID,19.8408,VALID,5,VALID,0,
2008-04-22, 01:41:00,VALID,913.835,VALID,0,VALID,100,VALID,-0.0679233,VALID,19.8436,VALID,29,VALID,0,
2008-04-22, 01:42:00,VALID,913.795,VALID,0,VALID,100,VALID,-0.0509425,VALID,19.8601,VALID,27,VALID,0,
2008-04-22, 01:43:00,VALID,913.789,VALID,0,VALID,100,VALID,-0.0339617,VALID,19.8825,VALID,19,VALID,0,
2008-04-22, 01:44:00,VALID,913.786,VALID,0,VALID,100,VALID,-0.0679233,VALID,19.8728,VALID,19,VALID,0,
2008-04-22, 01:45:00,VALID,913.772,VALID,0,VALID,100,VALID,-0.0849042,VALID,19.8441,VALID,19,VALID,0,
2008-04-22, 01:46:00,VALID,913.757,VALID,0,VALID,100,VALID,-0.0849042,VALID,19.8144,VALID,357,VALID,0,
2008-04-22, 01:47:00,VALID,913.755,VALID,0,VALID,100,VALID,-0.101885,VALID,19.7822,VALID,352,VALID,0,
2008-04-22, 01:48:00,VALID,913.744,VALID,0,VALID,100,VALID,-0.0849042,VALID,19.7819,VALID,10,VALID,0,
2008-04-22, 01:49:00,VALID,913.709,VALID,0,VALID,100,VALID,-0.0679233,VALID,19.7954,VALID,32,VALID,0,
2008-04-22, 01:50:00,VALID,913.705,VALID,0,VALID,100,VALID,-0.0339617,VALID,19.8039,VALID,12,VALID,0,
2008-04-22, 01:51:00,VALID,913.704,VALID,0,VALID,100,VALID,0,VALID,19.8069,VALID,11,VALID,0,
2008-04-22, 01:52:00,VALID,913.685,VALID,0,VALID,100,VALID,0,VALID,19.8296,VALID,11,VALID,0,
2008-04-22, 01:53:00,VALID,913.683,VALID,0.2,VALID,100,VALID,0.0339617,VALID,19.8291,VALID,11,VALID,0,
2008-04-22, 01:54:00,VALID,913.676,VALID,0,VALID,100,VALID,0.0339617,VALID,19.8256,VALID,11,VALID,0,
2008-04-22, 01:55:00,VALID,913.644,VALID,0,VALID,100,VALID,0.0169808,VALID,19.8353,VALID,11,VALID,0,
2008-04-22, 01:56:00,VALID,913.644,VALID,0,VALID,100,VALID,0.0849042,VALID,19.8613,VALID,11,VALID,0,
2008-04-22, 01:57:00,VALID,913.636,VALID,0,VALID,100,VALID,0.0339617,VALID,19.8483,VALID,16,VALID,0,
2008-04-22, 01:58:00,VALID,913.63,VALID,0,VALID,100,VALID,0.0339617,VALID,19.8258,VALID,16,VALID,0,
2008-04-22, 01:59:00,VALID,913.624,VALID,0,VALID,100,VALID,0.0679233,VALID,19.8356,VALID,16,VALID,0,
2008-04-22, 02:00:00,VALID,913.63,VALID,0,VALID,100,VALID,0.0169808,VALID,19.8391,VALID,16,VALID,0,
2008-04-22, 02:01:00,VALID,913.635,VALID,0,VALID,100,VALID,0.0339617,VALID,19.8226,VALID,16,VALID,0,
2008-04-22, 02:02:00,VALID,913.64,VALID,0,VALID,100,VALID,0.0339617,VALID,19.7964,VALID,16,VALID,0,
2008-04-22, 02:03:00,VALID,913.654,VALID,0,VALID,100,VALID,0.0509425,VALID,19.761,VALID,16,VALID,0,
2008-04-22, 02:04:00,VALID,913.658,VALID,0,VALID,100,VALID,0.0849042,VALID,19.748,VALID,16,VALID,0,
2008-04-22, 02:05:00,VALID,913.662,VALID,0,VALID,100,VALID,0.0169808,VALID,19.732,VALID,16,VALID,0,
2008-04-22, 02:06:00,VALID,913.657,VALID,0.2,VALID,100,VALID,0.0169808,VALID,19.7382,VALID,44,VALID,0,
2008-04-22, 02:07:00,VALID,913.654,VALID,0,VALID,100,VALID,0.0169808,VALID,19.7415,VALID,93,VALID,0.0263889,
2008-04-22, 02:08:00,VALID,913.673,VALID,0,VALID,100,VALID,0,VALID,19.7347,VALID,94,VALID,0,
2008-04-22, 02:09:00,VALID,913.68,VALID,0,VALID,100,VALID,0.0169808,VALID,19.745,VALID,94,VALID,0,
2008-04-22, 02:10:00,VALID,913.683,VALID,0.2,VALID,100,VALID,0.0169808,VALID,19.7415,VALID,208,VALID,0,
2008-04-22, 02:11:00,VALID,913.684,VALID,0,VALID,100,VALID,0.0509425,VALID,19.725,VALID,263,VALID,0,
2008-04-22, 02:12:00,VALID,913.686,VALID,0,VALID,100,VALID,0,VALID,19.7352,VALID,264,VALID,0,
2008-04-22, 02:13:00,VALID,913.701,VALID,0,VALID,100,VALID,0.0169808,VALID,19.7547,VALID,248,VALID,0,
2008-04-22, 02:14:00,VALID,913.712,VALID,0,VALID,100,VALID,0.0509425,VALID,19.7577,VALID,201,VALID,0,
2008-04-22, 02:15:00,VALID,913.697,VALID,0,VALID,100,VALID,0.0339617,VALID,19.7577,VALID,200,VALID,0,
2008-04-22, 02:16:00,VALID,913.679,VALID,0,VALID,100,VALID,0.0169808,VALID,19.738,VALID,200,VALID,0,
2008-04-22, 02:17:00,VALID,913.645,VALID,0,VALID,100,VALID,0,VALID,19.735,VALID,200,VALID,0,
2008-04-22, 02:18:00,VALID,913.624,VALID,0,VALID,100,VALID,0.0339617,VALID,19.7447,VALID,200,VALID,0,
2008-04-22, 02:19:00,VALID,913.633,VALID,0,VALID,100,VALID,0.0509425,VALID,19.7644,VALID,248,VALID,0,
2008-04-22, 02:20:00,VALID,913.605,VALID,0,VALID,100,VALID,0,VALID,19.7752,VALID,310,VALID,0,
2008-04-22, 02:21:00,VALID,913.604,VALID,0,VALID,100,VALID,-0.0339617,VALID,19.7914,VALID,310,VALID,0,
2008-04-22, 02:22:00,VALID,913.592,VALID,0,VALID,100,VALID,0,VALID,19.7949,VALID,310,VALID,0,
2008-04-22, 02:23:00,VALID,913.596,VALID,0.2,VALID,100,VALID,-0.0339617,VALID,19.7784,VALID,279,VALID,0,
2008-04-22, 02:24:00,VALID,913.594,VALID,0,VALID,100,VALID,0.0169808,VALID,19.7752,VALID,232,VALID,0,
2008-04-22, 02:25:00,VALID,913.569,VALID,0,VALID,100,VALID,0.0169808,VALID,19.7719,VALID,227,VALID,0,
2008-04-22, 02:26:00,VALID,913.562,VALID,0,VALID,100,VALID,-0.0339617,VALID,19.7819,VALID,227,VALID,0,
2008-04-22, 02:27:00,VALID,913.54,VALID,0,VALID,100,VALID,-0.0339617,VALID,19.7917,VALID,227,VALID,0,
2008-04-22, 02:28:00,VALID,913.536,VALID,0,VALID,100,VALID,-0.0509425,VALID,19.7981,VALID,227,VALID,0,
2008-04-22, 02:29:00,VALID,913.492,VALID,0,VALID,100,VALID,0.0169808,VALID,19.7979,VALID,227,VALID,0,
2008-04-22, 02:30:00,VALID,913.495,VALID,0,VALID,100,VALID,0,VALID,19.7949,VALID,227,VALID,0,
2008-04-22, 02:31:00,VALID,913.474,VALID,0,VALID,100,VALID,-0.0169808,VALID,19.7787,VALID,227,VALID,0,
2008-04-22, 02:32:00,VALID,913.443,VALID,0,VALID,100,VALID,-0.0169808,VALID,19.7689,VALID,200,VALID,0,
2008-04-22, 02:33:00,VALID,913.391,VALID,0,VALID,100,VALID,0,VALID,19.736,VALID,107,VALID,0,
2008-04-22, 02:34:00,VALID,913.35,VALID,0,VALID,100,VALID,0,VALID,19.749,VALID,79,VALID,0,
2008-04-22, 02:35:00,VALID,913.342,VALID,0,VALID,100,VALID,-0.0339617,VALID,19.7365,VALID,96,VALID,0,
2008-04-22, 02:36:00,VALID,913.342,VALID,0,VALID,100,VALID,-0.0679233,VALID,19.756,VALID,93,VALID,0,
2008-04-22, 02:37:00,VALID,913.308,VALID,0,VALID,100,VALID,0,VALID,19.7754,VALID,88,VALID,0,
2008-04-22, 02:38:00,VALID,913.288,VALID,0,VALID,100,VALID,0,VALID,19.7882,VALID,88,VALID,0,
2008-04-22, 02:39:00,VALID,913.256,VALID,0,VALID,100,VALID,0,VALID,19.7722,VALID,60,VALID,0,
2008-04-22, 02:40:00,VALID,913.256,VALID,0.2,VALID,100,VALID,0,VALID,19.7625,VALID,48,VALID,0,
2008-04-22, 02:41:00,VALID,913.262,VALID,0,VALID,100,VALID,-0.0509425,VALID,19.7689,VALID,44,VALID,0,
2008-04-22, 02:42:00,VALID,913.276,VALID,0,VALID,100,VALID,0,VALID,19.7789,VALID,36,VALID,0,
2008-04-22, 02:43:00,VALID,913.253,VALID,0,VALID,100,VALID,-0.0169808,VALID,19.7397,VALID,322,VALID,0,
2008-04-22, 02:44:00,VALID,913.187,VALID,0,VALID,100,VALID,0.0509425,VALID,19.7133,VALID,20,VALID,0.941506,
2008-04-22, 02:45:00,VALID,913.173,VALID,0,VALID,100,VALID,0.0169808,VALID,19.7258,VALID,10,VALID,1.04127,
2008-04-22, 02:46:00,VALID,913.173,VALID,0,VALID,100,VALID,0.0339617,VALID,19.7365,VALID,11,VALID,0.50218,
2008-04-22, 02:47:00,VALID,913.185,VALID,0,VALID,100,VALID,0.0169808,VALID,19.743,VALID,12,VALID,0,
2008-04-22, 02:48:00,VALID,913.19,VALID,0,VALID,100,VALID,0,VALID,19.7298,VALID,12,VALID,0,
2008-04-22, 02:49:00,VALID,913.152,VALID,0,VALID,100,VALID,-0.0169808,VALID,19.733,VALID,12,VALID,0,
2008-04-22, 02:50:00,VALID,913.122,VALID,0,VALID,100,VALID,-0.0509425,VALID,19.746,VALID,12,VALID,0,
2008-04-22, 02:51:00,VALID,913.098,VALID,0,VALID,100,VALID,-0.0679233,VALID,19.7527,VALID,12,VALID,0,
2008-04-22, 02:52:00,VALID,913.065,VALID,0,VALID,100,VALID,-0.0339617,VALID,19.756,VALID,26,VALID,0.826882,
2008-04-22, 02:53:00,VALID,913.057,VALID,0,VALID,100,VALID,0,VALID,19.7557,VALID,30,VALID,0.554501,
2008-04-22, 02:54:00,VALID,913.007,VALID,0,VALID,100,VALID,0,VALID,19.7625,VALID,47,VALID,0.926562,
2008-04-22, 02:55:00,VALID,913.006,VALID,0,VALID,100,VALID,0,VALID,19.7652,VALID,22,VALID,0.612043,
2008-04-22, 02:56:00,VALID,912.976,VALID,0,VALID,100,VALID,0.0339617,VALID,19.7849,VALID,33,VALID,0.839489,
2008-04-22, 02:57:00,VALID,912.98,VALID,0,VALID,100,VALID,0,VALID,19.7622,VALID,15,VALID,0.170573,
2008-04-22, 02:58:00,VALID,912.988,VALID,0,VALID,100,VALID,0,VALID,19.7722,VALID,14,VALID,0.356027,
2008-04-22, 02:59:00,VALID,912.964,VALID,0,VALID,100,VALID,-0.0509425,VALID,19.7657,VALID,13,VALID,0.0118189,
2008-04-22, 03:00:00,VALID,912.926,VALID,0,VALID,100,VALID,-0.0169808,VALID,19.7657,VALID,17,VALID,0.157393,
2008-04-22, 03:01:00,VALID,912.932,VALID,0,VALID,100,VALID,0,VALID,19.7719,VALID,18,VALID,0.157948,
2008-04-22, 03:02:00,VALID,912.897,VALID,0,VALID,100,VALID,0,VALID,19.7784,VALID,28,VALID,0.050071,
2008-04-22, 03:03:00,VALID,912.88,VALID,0,VALID,100,VALID,-0.0169808,VALID,19.7852,VALID,30,VALID,0,
2008-04-22, 03:04:00,VALID,912.888,VALID,0,VALID,100,VALID,0,VALID,19.7819,VALID,34,VALID,0,
2008-04-22, 03:05:00,VALID,912.829,VALID,0,VALID,100,VALID,-0.0169808,VALID,19.7689,VALID,30,VALID,0.745028,
2008-04-22, 03:06:00,VALID,912.785,VALID,0,VALID,100,VALID,-0.0339617,VALID,19.7038,VALID,22,VALID,2.06543,
2008-04-22, 03:07:00,VALID,912.788,VALID,0,VALID,100,VALID,-0.0509425,VALID,19.6946,VALID,337,VALID,0.81141,
2008-04-22, 03:08:00,VALID,912.754,VALID,0,VALID,100,VALID,0,VALID,19.6783,VALID,3,VALID,1.04462,
2008-04-22, 03:09:00,VALID,912.731,VALID,0,VALID,100,VALID,0,VALID,19.6519,VALID,5,VALID,0.186547,
2008-04-22, 03:10:00,VALID,912.704,VALID,0,VALID,100,VALID,0,VALID,19.6327,VALID,30,VALID,1.23233,
2008-04-22, 03:11:00,VALID,912.701,VALID,0,VALID,100,VALID,-0.0509425,VALID,19.6456,VALID,8,VALID,0.290516,
2008-04-22, 03:12:00,VALID,912.681,VALID,0,VALID,100,VALID,-0.0169808,VALID,19.6456,VALID,7,VALID,0,
2008-04-22, 03:13:00,VALID,912.652,VALID,0,VALID,100,VALID,0,VALID,19.6521,VALID,16,VALID,0.978871,
2008-04-22, 03:14:00,VALID,912.616,VALID,0.2,VALID,100,VALID,-0.0509425,VALID,19.6259,VALID,4,VALID,1.56377,
2008-04-22, 03:15:00,VALID,912.574,VALID,0,VALID,100,VALID,-0.0169808,VALID,19.6132,VALID,25,VALID,1.15742,
2008-04-22, 03:16:00,VALID,912.55,VALID,0,VALID,100,VALID,-0.0339617,VALID,19.6069,VALID,38,VALID,1.54616,
2008-04-22, 03:17:00,VALID,912.555,VALID,0,VALID,100,VALID,-0.0169808,VALID,19.5675,VALID,16,VALID,1.57122,
2008-04-22, 03:18:00,VALID,912.526,VALID,0,VALID,100,VALID,-0.0339617,VALID,19.578,VALID,357,VALID,1.7276,
2008-04-22, 03:19:00,VALID,912.518,VALID,0,VALID,100,VALID,-0.0169808,VALID,19.5683,VALID,359,VALID,1.0806,
2008-04-22, 03:20:00,VALID,912.52,VALID,0,VALID,100,VALID,-0.0169808,VALID,19.5735,VALID,6,VALID,1.11257,
2008-04-22, 03:21:00,VALID,912.538,VALID,0,VALID,100,VALID,0,VALID,19.58,VALID,14,VALID,1.12882,
2008-04-22, 03:22:00,VALID,912.482,VALID,0,VALID,100,VALID,-0.0169808,VALID,19.593,VALID,18,VALID,1.74714,
2008-04-22, 03:23:00,VALID,912.508,VALID,0,VALID,100,VALID,-0.0169808,VALID,19.5867,VALID,12,VALID,1.42259,
2008-04-22, 03:24:00,VALID,912.497,VALID,0.2,VALID,100,VALID,0,VALID,19.56,VALID,345,VALID,0.637277,
2008-04-22, 03:25:00,VALID,912.437,VALID,0,VALID,100,VALID,-0.0339617,VALID,19.587,VALID,21,VALID,1.52188,
2008-04-22, 03:26:00,VALID,912.435,VALID,0,VALID,100,VALID,-0.0509425,VALID,19.5798,VALID,13,VALID,1.97656,
2008-04-22, 03:27:00,VALID,912.472,VALID,0,VALID,100,VALID,0,VALID,19.5897,VALID,355,VALID,1.03416,
2008-04-22, 03:28:00,VALID,912.485,VALID,0,VALID,100,VALID,-0.0339617,VALID,19.59,VALID,356,VALID,0.170387,
2008-04-22, 03:29:00,VALID,912.49,VALID,0,VALID,100,VALID,-0.0169808,VALID,19.5735,VALID,25,VALID,0,
2008-04-22, 03:30:00,VALID,912.49,VALID,0,VALID,100,VALID,-0.0169808,VALID,19.5795,VALID,25,VALID,0,
2008-04-22, 03:31:00,VALID,912.498,VALID,0,VALID,100,VALID,-0.0339617,VALID,19.5892,VALID,25,VALID,0.00109012,
2008-04-22, 03:32:00,VALID,912.482,VALID,0,VALID,100,VALID,-0.0169808,VALID,19.5897,VALID,25,VALID,0.053125,
2008-04-22, 03:33:00,VALID,912.463,VALID,0,VALID,100,VALID,0,VALID,19.6022,VALID,27,VALID,0,
2008-04-22, 03:34:00,VALID,912.47,VALID,0,VALID,100,VALID,-0.0339617,VALID,19.5995,VALID,25,VALID,0.428993,
2008-04-22, 03:35:00,VALID,912.473,VALID,0,VALID,100,VALID,0,VALID,19.5927,VALID,32,VALID,0.0342685,
2008-04-22, 03:36:00,VALID,912.489,VALID,0,VALID,100,VALID,-0.0169808,VALID,19.5827,VALID,27,VALID,0,
2008-04-22, 03:37:00,VALID,912.51,VALID,0,VALID,100,VALID,-0.0169808,VALID,19.5603,VALID,27,VALID,0,
2008-04-22, 03:38:00,VALID,912.529,VALID,0,VALID,100,VALID,-0.0169808,VALID,19.5605,VALID,36,VALID,0,
2008-04-22, 03:39:00,VALID,912.536,VALID,0,VALID,100,VALID,0,VALID,19.5503,VALID,59,VALID,0,
2008-04-22, 03:40:00,VALID,912.527,VALID,0,VALID,100,VALID,0,VALID,19.5406,VALID,47,VALID,0,
2008-04-22, 03:41:00,VALID,912.519,VALID,0,VALID,100,VALID,0,VALID,19.5151,VALID,47,VALID,0,
2008-04-22, 03:42:00,VALID,912.525,VALID,0,VALID,100,VALID,-0.0169808,VALID,19.5149,VALID,36,VALID,0,
2008-04-22, 03:43:00,VALID,912.531,VALID,0.2,VALID,100,VALID,0.0169808,VALID,19.5051,VALID,29,VALID,0,
2008-04-22, 03:44:00,VALID,912.567,VALID,0,VALID,100,VALID,-0.0169808,VALID,19.5186,VALID,28,VALID,0,
2008-04-22, 03:45:00,VALID,912.578,VALID,0,VALID,100,VALID,0,VALID,19.5341,VALID,28,VALID,0,
2008-04-22, 03:46:00,VALID,912.579,VALID,0,VALID,100,VALID,-0.0169808,VALID,19.554,VALID,28,VALID,0,
2008-04-22, 03:47:00,VALID,912.588,VALID,0,VALID,100,VALID,0,VALID,19.5603,VALID,28,VALID,0,
2008-04-22, 03:48:00,VALID,912.592,VALID,0,VALID,100,VALID,0,VALID,19.5635,VALID,28,VALID,0,
2008-04-22, 03:49:00,VALID,912.578,VALID,0,VALID,100,VALID,0,VALID,19.5733,VALID,28,VALID,0,
2008-04-22, 03:50:00,VALID,912.576,VALID,0,VALID,100,VALID,0,VALID,19.5568,VALID,28,VALID,0,